| time (UTC) | temp F | wind direction | speed MPH | gust MPH | rain 1hr in | rain 24hr in | rain mn in | humidity % | barometer mb |
| 20260510133017 | 52 | 225 | 0.0 | 0.0 | 0.00 | 0.00 | 0.00 | 63 | 1015.1 |
| 20260510131518 | 52 | 225 | 0.0 | 0.0 | 0.00 | 0.00 | 0.00 | 61 | 1015.1 |
| 20260510130013 | 53 | 225 | 0.0 | 0.0 | 0.00 | 0.00 | 0.00 | 60 | 1014.7 |
| 20260510124516 | 53 | 225 | 0.0 | 0.0 | 0.00 | 0.00 | 0.00 | 61 | 1014.9 |
| 20260510123014 | 53 | 225 | 0.0 | 0.0 | 0.00 | 0.00 | 0.00 | 60 | 1014.8 |
| 20260510121506 | 53 | 224 | 0.0 | 2.0 | 0.00 | 0.00 | 0.00 | 60 | 1014.8 |
| 20260510120020 | 54 | 178 | 1.0 | 3.0 | 0.00 | 0.00 | 0.00 | 61 | 1015.0 |
| 20260510114509 | 54 | 227 | 0.0 | 3.0 | 0.00 | 0.00 | 0.00 | 58 | 1015.1 |
| 20260510113014 | 54 | 211 | 0.0 | 2.0 | 0.00 | 0.00 | 0.00 | 58 | 1015.1 |
| 20260510111523 | 54 | 181 | 0.0 | 3.0 | 0.00 | 0.00 | 0.00 | 58 | 1015.1 |
| 20260510110015 | 55 | 197 | 0.0 | 1.0 | 0.00 | 0.00 | 0.00 | 58 | 1015.2 |
| 20260510104512 | 55 | 221 | 0.0 | 0.0 | 0.00 | 0.00 | 0.00 | 58 | 1015.2 |
| 20260510103008 | 55 | 223 | 0.0 | 0.0 | 0.00 | 0.00 | 0.00 | 57 | 1015.2 |
| 20260510101513 | 55 | 210 | 0.0 | 0.0 | 0.00 | 0.00 | 0.00 | 57 | 1015.2 |
| 20260510100005 | 56 | 224 | 0.0 | 2.0 | 0.00 | 0.00 | 0.00 | 56 | 1015.2 |
| 20260510094505 | 56 | 210 | 0.0 | 2.0 | 0.00 | 0.00 | 0.00 | 56 | 1015.2 |
| 20260510093003 | 56 | 198 | 0.0 | 0.0 | 0.00 | 0.00 | 0.00 | 56 | 1015.3 |
| 20260510091503 | 56 | 198 | 0.0 | 3.0 | 0.00 | 0.00 | 0.00 | 55 | 1015.5 |
| 20260510090002 | 56 | 163 | 0.0 | 1.0 | 0.00 | 0.00 | 0.00 | 54 | 1015.7 |
| 20260510084503 | 56 | 163 | 0.0 | 1.0 | 0.00 | 0.00 | 0.00 | 53 | 1015.7 |
| 20260510083008 | 56 | 163 | 0.0 | 0.0 | 0.00 | 0.00 | 0.00 | 52 | 1015.8 |
| 20260510081511 | 56 | 163 | 0.0 | 0.0 | 0.00 | 0.00 | 0.00 | 52 | 1015.9 |
| 20260510080003 | 57 | 163 | 0.0 | 0.0 | 0.00 | 0.00 | 0.00 | 51 | 1015.9 |
| 20260510071510 | 58 | 163 | 0.0 | 0.0 | 0.00 | 0.00 | 0.00 | 50 | 1016.2 |
| 20260510064512 | 59 | 163 | 0.0 | 0.0 | 0.00 | 0.00 | 0.00 | 48 | 1016.1 |
| 20260510063013 | 59 | 163 | 0.0 | 0.0 | 0.00 | 0.00 | 0.00 | 48 | 1016.1 |
| 20260510061504 | 60 | 163 | 0.0 | 0.0 | 0.00 | 0.00 | 0.00 | 46 | 1015.9 |
| 20260510054516 | 62 | 163 | 0.0 | 0.0 | 0.00 | 0.00 | 0.00 | 44 | 1016.2 |
| 20260510053004 | 63 | 163 | 0.0 | 0.0 | 0.00 | 0.00 | 0.00 | 42 | 1016.1 |
| 20260510051501 | 64 | 163 | 0.0 | 0.0 | 0.00 | 0.00 | 0.00 | 41 | 1016.2 |
| 20260510050007 | 65 | 163 | 0.0 | 0.0 | 0.00 | 0.00 | 0.00 | 39 | 1016.3 |
| 20260510043003 | 65 | 162 | 1.0 | 4.0 | 0.00 | 0.00 | 0.00 | 37 | 1016.6 |
| 20260510041505 | 66 | 95 | 0.0 | 0.0 | 0.00 | 0.00 | 0.00 | 41 | 1016.5 |
| 20260510040006 | 67 | 95 | 0.0 | 1.0 | 0.00 | 0.00 | 0.00 | 38 | 1016.4 |
| 20260510034512 | 67 | 95 | 0.0 | 1.0 | 0.00 | 0.00 | 0.00 | 38 | 1016.3 |
| 20260510033017 | 68 | 95 | 0.0 | 0.0 | 0.00 | 0.00 | 0.00 | 36 | 1016.5 |
| 20260510031516 | 69 | 95 | 0.0 | 0.0 | 0.00 | 0.00 | 0.00 | 36 | 1016.3 |
| 20260510030007 | 70 | 95 | 0.0 | 0.0 | 0.00 | 0.00 | 0.00 | 37 | 1016.4 |
| 20260510024510 | 71 | 95 | 0.0 | 0.0 | 0.00 | 0.00 | 0.00 | 36 | 1016.4 |
| 20260510023022 | 72 | 95 | 0.0 | 0.0 | 0.00 | 0.00 | 0.00 | 35 | 1016.5 |
| 20260510021520 | 73 | 95 | 0.0 | 2.0 | 0.00 | 0.00 | 0.00 | 34 | 1016.6 |
| 20260510020022 | 73 | 121 | 0.0 | 0.0 | 0.00 | 0.00 | 0.00 | 32 | 1016.6 |
| 20260510014517 | 74 | 121 | 0.0 | 1.0 | 0.00 | 0.00 | 0.00 | 31 | 1016.8 |
| 20260510013006 | 74 | 121 | 0.0 | 1.0 | 0.00 | 0.00 | 0.00 | 32 | 1016.8 |
| 20260510011522 | 75 | 103 | 0.0 | 3.0 | 0.00 | 0.00 | 0.00 | 31 | 1017.1 |
| 20260510010009 | 76 | 94 | 0.0 | 2.0 | 0.00 | 0.00 | 0.00 | 31 | 1017.2 |
| 20260510004507 | 76 | 93 | 0.0 | 3.0 | 0.00 | 0.00 | 0.00 | 32 | 1017.3 |
| 20260510003004 | 77 | 90 | 1.0 | 4.0 | 0.00 | 0.00 | 0.00 | 31 | 1017.4 |
| 20260510001506 | 77 | 352 | 0.0 | 3.0 | 0.00 | 0.00 | 0.00 | 33 | 1017.5 |
| 20260510000004 | 78 | 90 | 0.0 | 3.0 | 0.00 | 0.00 | 0.00 | 32 | 1017.5 |
| 20260509234518 | 78 | 38 | 0.0 | 3.0 | 0.00 | 0.00 | 0.00 | 31 | 1017.6 |
| 20260509233028 | 78 | 308 | 0.0 | 2.0 | 0.00 | 0.00 | 0.00 | 30 | 1017.7 |
| 20260509231514 | 78 | 91 | 0.0 | 4.0 | 0.00 | 0.00 | 0.00 | 30 | 1017.9 |
| 20260509230004 | 78 | 90 | 0.0 | 3.0 | 0.00 | 0.00 | 0.00 | 32 | 1018.0 |
| 20260509224513 | 78 | 327 | 0.0 | 4.0 | 0.00 | 0.00 | 0.00 | 32 | 1018.3 |
| 20260509223018 | 78 | 295 | 1.0 | 3.0 | 0.00 | 0.00 | 0.00 | 32 | 1018.5 |
| 20260509221516 | 78 | 327 | 0.0 | 3.0 | 0.00 | 0.00 | 0.00 | 33 | 1018.7 |
| 20260509220016 | 78 | 315 | 0.0 | 2.0 | 0.00 | 0.00 | 0.00 | 34 | 1018.9 |
| 20260509214507 | 77 | 79 | 0.0 | 3.0 | 0.00 | 0.00 | 0.00 | 33 | 1019.0 |
| 20260509213010 | 77 | 272 | 0.0 | 3.0 | 0.00 | 0.00 | 0.00 | 34 | 1019.1 |
| 20260509211513 | 77 | 154 | 0.0 | 3.0 | 0.00 | 0.00 | 0.00 | 35 | 1019.3 |
| 20260509210017 | 76 | 131 | 0.0 | 3.0 | 0.00 | 0.00 | 0.00 | 36 | 1019.5 |
| 20260509204518 | 76 | 306 | 0.0 | 4.0 | 0.00 | 0.00 | 0.00 | 35 | 1019.5 |
| 20260509203009 | 76 | 112 | 1.0 | 3.0 | 0.00 | 0.00 | 0.00 | 37 | 1019.7 |
| 20260509201514 | 76 | 325 | 0.0 | 3.0 | 0.00 | 0.00 | 0.00 | 37 | 1019.8 |
| 20260509200016 | 75 | 160 | 0.0 | 3.0 | 0.00 | 0.00 | 0.00 | 41 | 1019.8 |
| 20260509194520 | 75 | 95 | 0.0 | 3.0 | 0.00 | 0.00 | 0.00 | 39 | 1019.9 |
| 20260509193025 | 74 | 113 | 2.0 | 5.0 | 0.00 | 0.00 | 0.00 | 39 | 1020.2 |
| 20260509191526 | 74 | 248 | 1.0 | 7.0 | 0.00 | 0.00 | 0.00 | 39 | 1020.3 |
| 20260509190018 | 74 | 151 | 0.0 | 3.0 | 0.00 | 0.00 | 0.00 | 42 | 1020.5 |
| 20260509184526 | 73 | 132 | 0.0 | 4.0 | 0.00 | 0.00 | 0.00 | 35 | 1020.7 |
| 20260509183014 | 73 | 46 | 0.0 | 3.0 | 0.00 | 0.00 | 0.00 | 36 | 1020.8 |
| 20260509181524 | 73 | 196 | 1.0 | 5.0 | 0.00 | 0.00 | 0.00 | 37 | 1020.8 |
| 20260509180027 | 72 | 64 | 0.0 | 2.0 | 0.00 | 0.00 | 0.00 | 40 | 1020.9 |
| 20260509174521 | 71 | 105 | 1.0 | 5.0 | 0.00 | 0.00 | 0.00 | 40 | 1021.0 |
| 20260509173026 | 70 | 107 | 0.0 | 7.0 | 0.00 | 0.00 | 0.00 | 41 | 1021.1 |
| 20260509171533 | 69 | 258 | 0.0 | 2.0 | 0.00 | 0.00 | 0.00 | 45 | 1021.2 |
| 20260509170024 | 67 | 178 | 1.0 | 6.0 | 0.00 | 0.00 | 0.00 | 45 | 1021.4 |
| 20260509164525 | 66 | 144 | 2.0 | 4.0 | 0.00 | 0.00 | 0.00 | 46 | 1021.3 |
| 20260509161531 | 64 | 182 | 3.0 | 7.0 | 0.00 | 0.00 | 0.00 | 51 | 1021.6 |
| 20260509160008 | 63 | 184 | 3.0 | 9.0 | 0.00 | 0.00 | 0.00 | 53 | 1021.6 |
| 20260509154510 | 62 | 216 | 3.0 | 10.0 | 0.00 | 0.00 | 0.00 | 56 | 1021.7 |
| 20260509153010 | 61 | 215 | 2.0 | 7.0 | 0.00 | 0.00 | 0.00 | 58 | 1021.6 |
| 20260509151503 | 59 | 80 | 1.0 | 4.0 | 0.00 | 0.00 | 0.00 | 60 | 1021.7 |
| 20260509150010 | 58 | 307 | 0.0 | 6.0 | 0.00 | 0.00 | 0.00 | 62 | 1021.4 |
| 20260509144518 | 57 | 153 | 0.0 | 8.0 | 0.00 | 0.00 | 0.00 | 66 | 1021.3 |
| 20260509143010 | 56 | 149 | 0.0 | 6.0 | 0.00 | 0.00 | 0.00 | 68 | 1021.3 |
| 20260509141507 | 55 | 188 | 1.0 | 6.0 | 0.00 | 0.00 | 0.00 | 69 | 1021.2 |
| 20260509140005 | 54 | 145 | 2.0 | 6.0 | 0.00 | 0.00 | 0.00 | 70 | 1021.1 |
| 20260509134504 | 53 | 155 | 2.0 | 8.0 | 0.00 | 0.00 | 0.00 | 72 | 1020.9 |